Location: Unspecified
(35.7250°N, 0.0000°E)
Time: 04:02:59
(UTC+00:00)

S-56A Canister/Altair - Visible Passes

Search period start: 18 June 2019 00:00
Search period end: 28 June 2019 00:00
Orbit: 633 x 2499 km, 38.9° (Epoch: 16 June)

Date Brightness Start Highest point End Pass type
(mag) Time Alt. Az. Time Alt. Az. Time Alt. Az.
18 Jun 7.8 19:54:39 10° WNW 20:00:17 63° N 20:04:46 10° E visible
18 Jun 7.6 21:59:25 10° WNW 22:03:14 49° WSW 22:03:14 49° WSW visible
19 Jun 7.1 21:26:39 10° WNW 21:31:29 66° SSW 21:32:10 56° SSE visible
20 Jun 7.1 20:53:50 10° WNW 20:59:00 76° SSW 21:01:05 31° ESE visible
21 Jun 7.3 20:20:54 10° WNW 20:26:30 86° SSW 20:30:01 17° ESE visible
21 Jun 9.4 22:26:18 10° W 22:27:27 14° WSW 22:27:27 14° WSW visible
22 Jun 7.5 19:47:52 10° WNW 19:53:57 86° NNE 19:58:34 10° ESE visible
22 Jun 8.7 21:53:19 10° W 21:56:24 23° SW 21:56:24 23° SW visible
23 Jun 8.2 21:20:18 10° W 21:24:42 30° SW 21:25:23 28° SSW visible
24 Jun 8.2 20:47:16 10° W 20:52:16 37° SSW 20:54:22 24° SSE visible
25 Jun 8.1 20:14:10 10° WNW 20:19:48 45° SSW 20:23:23 15° SE visible
27 Jun 9.5 21:15:27 10° WSW 21:17:26 12° SW 21:18:55 11° SSW visible
